Time,TemperatureF,DewpointF,PressureIn,WindDirection,WindDirectionDegrees,WindSpeedMPH,WindSpeedGustMPH,Humidity,HourlyPrecipIn,Conditions,Clouds,dailyrainin,SoftwareType,DateUTC
2013-02-26 00:01:00,28.0,26.0,30.22,North,10,0.0,0.0,93,0.00,,,0.01,,2013-02-26 05:01:00,
2013-02-26 00:12:00,28.0,26.0,30.22,North,10,0.0,0.0,93,0.00,,,0.01,,2013-02-26 05:12:00,
2013-02-26 00:22:00,28.0,26.0,30.22,North,10,0.0,0.0,93,0.00,,,0.01,,2013-02-26 05:22:00,
2013-02-26 00:32:00,28.0,26.0,30.23,North,10,0.0,0.0,93,0.00,,,0.01,,2013-02-26 05:32:00,
2013-02-26 00:43:00,28.0,26.0,30.23,North,10,0.0,0.0,93,0.00,,,0.01,,2013-02-26 05:43:00,
2013-02-26 00:52:00,28.0,26.0,30.23,North,10,0.0,0.0,92,0.00,,,0.01,,2013-02-26 05:52:00,
2013-02-26 01:02:00,27.0,25.0,30.23,North,10,0.0,0.0,92,0.00,,,0.01,,2013-02-26 06:02:00,
2013-02-26 01:11:00,27.0,25.0,30.23,North,10,0.0,0.0,92,0.00,,,0.01,,2013-02-26 06:11:00,
2013-02-26 01:21:00,27.0,25.0,30.24,North,10,0.0,0.0,92,0.00,,,0.01,,2013-02-26 06:21:00,
2013-02-26 01:32:00,27.0,25.0,30.24,North,10,0.0,0.0,92,0.00,,,0.01,,2013-02-26 06:32:00,
2013-02-26 01:42:00,27.0,25.0,30.24,North,10,0.0,0.0,92,0.00,,,0.01,,2013-02-26 06:42:00,
2013-02-26 01:52:00,27.0,25.0,30.23,North,10,0.0,0.0,92,0.00,,,0.01,,2013-02-26 06:52:00,
2013-02-26 02:01:00,27.0,25.0,30.23,North,10,0.0,0.0,91,0.00,,,0.01,,2013-02-26 07:01:00,
2013-02-26 02:11:00,27.0,25.0,30.23,North,10,0.0,0.0,91,0.00,,,0.01,,2013-02-26 07:11:00,
2013-02-26 02:22:00,27.0,25.0,30.22,North,10,0.0,0.0,91,0.00,,,0.01,,2013-02-26 07:22:00,
2013-02-26 02:32:00,27.0,25.0,30.22,North,10,0.0,0.0,91,0.00,,,0.01,,2013-02-26 07:32:00,
2013-02-26 02:42:00,27.0,25.0,30.22,North,10,0.0,0.0,91,0.00,,,0.01,,2013-02-26 07:42:00,
2013-02-26 02:52:00,26.0,24.0,30.22,North,10,0.0,0.0,91,0.00,,,0.01,,2013-02-26 07:52:00,
2013-02-26 03:02:00,26.0,24.0,30.22,North,10,0.0,0.0,91,0.00,,,0.01,,2013-02-26 08:02:00,
2013-02-26 03:11:00,26.0,24.0,30.22,North,10,0.0,0.0,91,0.00,,,0.01,,2013-02-26 08:11:00,
2013-02-26 03:21:00,26.0,24.0,30.22,North,10,0.0,0.0,91,0.00,,,0.01,,2013-02-26 08:21:00,
2013-02-26 03:32:00,26.0,23.0,30.23,North,10,0.0,0.0,90,0.00,,,0.01,,2013-02-26 08:32:00,
2013-02-26 03:42:00,26.0,23.0,30.23,North,10,0.0,0.0,90,0.00,,,0.01,,2013-02-26 08:42:00,
2013-02-26 03:52:00,26.0,23.0,30.23,North,10,0.0,0.0,90,0.00,,,0.01,,2013-02-26 08:52:00,
2013-02-26 04:02:00,26.0,24.0,30.26,North,9,0.0,2.0,91,0.00,,,0.01,,2013-02-26 09:02:00,
2013-02-26 04:11:00,26.0,24.0,30.26,North,9,0.0,2.0,91,0.00,,,0.01,,2013-02-26 09:11:00,
2013-02-26 04:21:00,26.0,23.0,30.26,North,9,0.0,2.0,90,0.00,,,0.01,,2013-02-26 09:21:00,
2013-02-26 04:32:00,26.0,23.0,30.27,North,10,0.0,2.0,90,0.00,,,0.01,,2013-02-26 09:32:00,
2013-02-26 04:43:00,26.0,23.0,30.27,North,10,0.0,2.0,90,0.00,,,0.01,,2013-02-26 09:43:00,
2013-02-26 04:52:00,26.0,24.0,30.28,North,10,0.0,1.0,91,0.00,,,0.01,,2013-02-26 09:52:00,
2013-02-26 05:01:00,26.0,24.0,30.28,North,10,0.0,1.0,92,0.00,,,0.01,,2013-02-26 10:01:00,
2013-02-26 05:11:00,26.0,24.0,30.28,North,10,0.0,1.0,92,0.00,,,0.01,,2013-02-26 10:11:00,
2013-02-26 05:21:00,26.0,24.0,30.28,North,10,0.0,0.0,92,0.00,,,0.01,,2013-02-26 10:21:00,
2013-02-26 05:31:00,26.0,24.0,30.28,North,10,0.0,0.0,91,0.00,,,0.01,,2013-02-26 10:31:00,
2013-02-26 05:42:00,26.0,24.0,30.28,North,10,0.0,0.0,91,0.00,,,0.01,,2013-02-26 10:42:00,
2013-02-26 05:52:00,26.0,24.0,30.27,North,10,0.0,0.0,92,0.00,,,0.01,,2013-02-26 10:52:00,
2013-02-26 06:01:00,26.0,24.0,30.27,North,10,0.0,0.0,92,0.00,,,0.01,,2013-02-26 11:01:00,
2013-02-26 06:12:00,26.0,24.0,30.27,North,10,0.0,0.0,92,0.00,,,0.01,,2013-02-26 11:12:00,
2013-02-26 06:22:00,25.0,23.0,30.27,North,10,0.0,0.0,93,0.00,,,0.01,,2013-02-26 11:22:00,
2013-02-26 06:32:00,25.0,23.0,30.28,North,10,0.0,0.0,93,0.00,,,0.01,,2013-02-26 11:32:00,
2013-02-26 06:42:00,25.0,23.0,30.28,North,10,0.0,0.0,93,0.00,,,0.01,,2013-02-26 11:42:00,
2013-02-26 06:52:00,25.0,24.0,30.29,North,10,0.0,0.0,94,0.00,,,0.01,,2013-02-26 11:52:00,
2013-02-26 07:02:00,25.0,24.0,30.29,North,10,0.0,0.0,94,0.00,,,0.01,,2013-02-26 12:02:00,
2013-02-26 07:11:00,25.0,24.0,30.29,North,10,0.0,0.0,94,0.00,,,0.01,,2013-02-26 12:11:00,
2013-02-26 07:22:00,25.0,24.0,30.29,North,10,0.0,0.0,94,0.00,,,0.01,,2013-02-26 12:22:00,
2013-02-26 07:32:00,26.0,25.0,30.29,North,10,0.0,0.0,94,0.00,,,0.01,,2013-02-26 12:32:00,
2013-02-26 07:42:00,26.0,25.0,30.29,North,10,0.0,0.0,94,0.00,,,0.01,,2013-02-26 12:42:00,
2013-02-26 07:52:00,27.0,26.0,30.30,North,10,0.0,0.0,95,0.00,,,0.01,,2013-02-26 12:52:00,
2013-02-26 08:02:00,27.0,26.0,30.30,North,10,0.0,0.0,95,0.00,,,0.01,,2013-02-26 13:02:00,
2013-02-26 08:11:00,27.0,26.0,30.30,North,10,0.0,0.0,95,0.00,,,0.01,,2013-02-26 13:11:00,
2013-02-26 08:22:00,29.0,27.0,30.30,North,10,0.0,1.0,94,0.00,,,0.01,,2013-02-26 13:22:00,
2013-02-26 08:32:00,33.0,29.0,30.31,North,9,0.0,1.0,86,0.00,,,0.01,,2013-02-26 13:32:00,
2013-02-26 08:42:00,33.0,29.0,30.31,North,9,0.0,1.0,86,0.00,,,0.01,,2013-02-26 13:42:00,
2013-02-26 08:51:00,38.0,30.0,30.31,North,9,0.0,2.0,74,0.00,,,0.00,,2013-02-26 13:51:00,
2013-02-26 09:01:00,38.0,30.0,30.31,North,9,0.0,2.0,74,0.00,,,0.00,,2013-02-26 14:01:00,
2013-02-26 09:11:00,38.0,30.0,30.31,North,9,0.0,2.0,74,0.00,,,0.00,,2013-02-26 14:11:00,
2013-02-26 09:21:00,38.0,30.0,30.31,North,9,0.0,2.0,74,0.00,,,0.00,,2013-02-26 14:21:00,
2013-02-26 09:32:00,40.0,32.0,30.32,NNW,343,0.0,4.0,74,0.00,,,0.00,,2013-02-26 14:32:00,
2013-02-26 09:42:00,40.0,32.0,30.32,NNW,343,0.0,4.0,74,0.00,,,0.00,,2013-02-26 14:42:00,
2013-02-26 09:52:00,41.0,32.0,30.32,North,358,0.0,4.0,70,0.00,,,0.00,,2013-02-26 14:52:00,
2013-02-26 10:02:00,41.0,32.0,30.32,North,358,0.0,4.0,70,0.00,,,0.00,,2013-02-26 15:02:00,
2013-02-26 10:11:00,41.0,32.0,30.32,North,358,0.0,4.0,70,0.00,,,0.00,,2013-02-26 15:11:00,
2013-02-26 10:22:00,42.0,33.0,30.32,North,4,1.0,6.0,71,0.00,,,0.00,,2013-02-26 15:22:00,
2013-02-26 10:32:00,42.0,34.0,30.31,NE,41,1.0,6.0,72,0.00,,,0.00,,2013-02-26 15:32:00,
2013-02-26 10:42:00,42.0,34.0,30.31,NE,41,1.0,6.0,72,0.00,,,0.00,,2013-02-26 15:42:00,
2013-02-26 10:52:00,41.0,32.0,30.31,NNE,23,4.0,8.0,71,0.00,,,0.00,,2013-02-26 15:52:00,
2013-02-26 11:02:00,41.0,33.0,30.31,NNE,13,3.0,10.0,73,0.00,,,0.00,,2013-02-26 16:02:00,
2013-02-26 11:11:00,41.0,33.0,30.31,NNE,13,3.0,10.0,73,0.00,,,0.00,,2013-02-26 16:11:00,
2013-02-26 11:22:00,42.0,34.0,30.32,North,6,2.0,8.0,72,0.00,,,0.00,,2013-02-26 16:22:00,
2013-02-26 11:32:00,42.0,34.0,30.32,North,6,2.0,8.0,72,0.00,,,0.00,,2013-02-26 16:32:00,
2013-02-26 11:42:00,42.0,34.0,30.32,North,6,2.0,8.0,72,0.00,,,0.00,,2013-02-26 16:42:00,
2013-02-26 11:52:00,43.0,32.0,30.29,NE,56,4.0,9.0,64,0.00,,,0.00,,2013-02-26 16:52:00,
2013-02-26 12:01:00,43.0,27.0,30.29,ENE,62,3.0,11.0,53,0.00,,,0.00,,2013-02-26 17:01:00,
2013-02-26 12:11:00,44.0,27.0,30.29,ENE,62,3.0,10.0,51,0.00,,,0.00,,2013-02-26 17:11:00,
2013-02-26 12:22:00,44.0,27.0,30.29,ENE,62,3.0,10.0,51,0.00,,,0.00,,2013-02-26 17:22:00,
2013-02-26 12:32:00,44.0,27.0,30.29,ESE,121,3.0,13.0,51,0.00,,,0.00,,2013-02-26 17:32:00,
2013-02-26 12:42:00,44.0,27.0,30.29,ESE,121,3.0,13.0,51,0.00,,,0.00,,2013-02-26 17:42:00,
2013-02-26 12:52:00,44.0,28.0,30.30,SE,132,5.0,11.0,52,0.00,,,0.00,,2013-02-26 17:52:00,
2013-02-26 13:02:00,44.0,27.0,30.30,SE,128,6.0,11.0,51,0.00,,,0.00,,2013-02-26 18:02:00,
2013-02-26 13:12:00,44.0,27.0,30.30,SE,128,6.0,11.0,51,0.00,,,0.00,,2013-02-26 18:12:00,
2013-02-26 13:21:00,44.0,28.0,30.30,SSE,151,4.0,14.0,54,0.00,,,0.00,,2013-02-26 18:21:00,
2013-02-26 13:32:00,44.0,28.0,30.30,SE,139,8.0,15.0,54,0.00,,,0.00,,2013-02-26 18:32:00,
2013-02-26 13:42:00,44.0,28.0,30.30,SE,139,8.0,15.0,54,0.00,,,0.00,,2013-02-26 18:42:00,
2013-02-26 13:53:00,43.0,28.0,30.29,South,169,6.0,14.0,56,0.00,,,0.00,,2013-02-26 18:53:00,
2013-02-26 14:01:00,43.0,28.0,30.29,SSE,162,7.0,13.0,55,0.00,,,0.00,,2013-02-26 19:01:00,
2013-02-26 14:11:00,43.0,28.0,30.29,SSE,162,7.0,13.0,55,0.00,,,0.00,,2013-02-26 19:11:00,
2013-02-26 14:22:00,43.0,29.0,30.29,SE,136,6.0,13.0,57,0.00,,,0.00,,2013-02-26 19:22:00,
2013-02-26 14:32:00,43.0,29.0,30.28,SSE,156,6.0,12.0,58,0.00,,,0.00,,2013-02-26 19:32:00,
2013-02-26 14:42:00,43.0,29.0,30.28,SSE,156,6.0,12.0,58,0.00,,,0.00,,2013-02-26 19:42:00,
2013-02-26 14:52:00,42.0,29.0,30.28,SSE,155,6.0,14.0,60,0.00,,,0.00,,2013-02-26 19:52:00,
2013-02-26 15:01:00,42.0,29.0,30.28,SSE,155,6.0,14.0,60,0.00,,,0.00,,2013-02-26 20:01:00,
2013-02-26 15:11:00,42.0,29.0,30.28,SSE,155,6.0,14.0,60,0.00,,,0.00,,2013-02-26 20:11:00,
2013-02-26 15:22:00,42.0,30.0,30.27,SE,124,1.0,8.0,61,0.00,,,0.00,,2013-02-26 20:22:00,
2013-02-26 15:32:00,42.0,30.0,30.26,ESE,120,7.0,13.0,62,0.00,,,0.00,,2013-02-26 20:32:00,
2013-02-26 15:42:00,42.0,30.0,30.26,ESE,120,7.0,13.0,62,0.00,,,0.00,,2013-02-26 20:42:00,
2013-02-26 15:52:00,41.0,31.0,30.26,SE,127,5.0,12.0,67,0.00,,,0.00,,2013-02-26 20:52:00,
2013-02-26 16:01:00,41.0,31.0,30.27,SE,138,4.0,12.0,67,0.00,,,0.00,,2013-02-26 21:01:00,
2013-02-26 16:11:00,41.0,31.0,30.27,SE,138,4.0,12.0,67,0.00,,,0.00,,2013-02-26 21:11:00,
2013-02-26 16:21:00,40.0,31.0,30.27,SE,135,6.0,12.0,69,0.00,,,0.00,,2013-02-26 21:21:00,
2013-02-26 16:31:00,40.0,31.0,30.27,SE,143,6.0,12.0,70,0.00,,,0.00,,2013-02-26 21:31:00,
2013-02-26 16:41:00,40.0,31.0,30.27,SE,143,6.0,12.0,70,0.00,,,0.00,,2013-02-26 21:41:00,
2013-02-26 16:51:00,39.0,30.0,30.26,SE,145,5.0,10.0,70,0.00,,,0.00,,2013-02-26 21:51:00,
2013-02-26 17:01:00,39.0,30.0,30.26,SE,135,6.0,10.0,71,0.00,,,0.00,,2013-02-26 22:01:00,
2013-02-26 17:11:00,38.0,30.0,30.26,SE,145,3.0,9.0,73,0.00,,,0.00,,2013-02-26 22:11:00,
2013-02-26 17:21:00,38.0,30.0,30.26,SE,145,3.0,9.0,73,0.00,,,0.00,,2013-02-26 22:21:00,
2013-02-26 17:32:00,38.0,30.0,30.26,SE,145,3.0,9.0,73,0.00,,,0.00,,2013-02-26 22:32:00,
2013-02-26 17:42:00,38.0,30.0,30.26,SE,145,3.0,9.0,73,0.00,,,0.00,,2013-02-26 22:42:00,
2013-02-26 17:52:00,38.0,31.0,30.26,ESE,119,1.0,4.0,75,0.00,,,0.00,,2013-02-26 22:52:00,
2013-02-26 18:01:00,38.0,31.0,30.26,ESE,120,0.0,1.0,76,0.00,,,0.00,,2013-02-26 23:01:00,
2013-02-26 18:11:00,38.0,31.0,30.26,ESE,120,0.0,1.0,76,0.00,,,0.00,,2013-02-26 23:11:00,
2013-02-26 18:21:00,37.0,30.0,30.25,ESE,120,0.0,0.0,77,0.00,,,0.00,,2013-02-26 23:21:00,
2013-02-26 18:32:00,37.0,30.0,30.25,ESE,120,0.0,0.0,77,0.00,,,0.00,,2013-02-26 23:32:00,
2013-02-26 18:42:00,37.0,30.0,30.25,ESE,120,0.0,0.0,77,0.00,,,0.00,,2013-02-26 23:42:00,
2013-02-26 18:52:00,36.0,30.0,30.25,ESE,120,0.0,1.0,79,0.00,,,0.00,,2013-02-26 23:52:00,
2013-02-26 19:01:00,36.0,30.0,30.25,ESE,120,0.0,1.0,80,0.00,,,0.00,,2013-02-27 00:01:00,
2013-02-26 19:11:00,36.0,30.0,30.25,ESE,120,0.0,1.0,80,0.00,,,0.00,,2013-02-27 00:11:00,
2013-02-26 19:22:00,36.0,31.0,30.24,East,83,1.0,3.0,81,0.00,,,0.00,,2013-02-27 00:22:00,
2013-02-26 19:32:00,36.0,31.0,30.23,ENE,66,0.0,3.0,82,0.00,,,0.00,,2013-02-27 00:32:00,
2013-02-26 19:42:00,36.0,31.0,30.23,ENE,66,0.0,3.0,82,0.00,,,0.00,,2013-02-27 00:42:00,
2013-02-26 19:51:00,36.0,31.0,30.23,ENE,66,0.0,3.0,82,0.00,,,0.00,,2013-02-27 00:51:00,
2013-02-26 20:01:00,36.0,31.0,30.23,East,90,0.0,4.0,82,0.00,,,0.00,,2013-02-27 01:01:00,
2013-02-26 20:11:00,36.0,31.0,30.23,East,90,0.0,4.0,82,0.00,,,0.00,,2013-02-27 01:11:00,
2013-02-26 20:22:00,36.0,31.0,30.22,East,92,1.0,3.0,82,0.00,,,0.00,,2013-02-27 01:22:00,
2013-02-26 20:32:00,36.0,31.0,30.22,East,92,1.0,3.0,82,0.00,,,0.00,,2013-02-27 01:32:00,
2013-02-26 20:42:00,36.0,31.0,30.22,East,92,1.0,3.0,82,0.00,,,0.00,,2013-02-27 01:42:00,
2013-02-26 20:52:00,36.0,31.0,30.22,ENE,75,0.0,5.0,82,0.00,,,0.00,,2013-02-27 01:52:00,
2013-02-26 21:01:00,36.0,31.0,30.23,ESE,108,1.0,5.0,82,0.00,,,0.00,,2013-02-27 02:01:00,
2013-02-26 21:16:00,36.0,31.0,30.23,ESE,108,1.0,5.0,82,0.00,,,0.00,,2013-02-27 02:16:00,
2013-02-26 21:24:00,36.0,31.0,30.23,ESE,108,1.0,5.0,82,0.00,,,0.00,,2013-02-27 02:24:00,
2013-02-26 21:32:00,36.0,32.0,30.21,ESE,103,0.0,3.0,84,0.00,,,0.00,,2013-02-27 02:32:00,
2013-02-26 21:42:00,36.0,32.0,30.21,ESE,103,0.0,3.0,84,0.00,,,0.00,,2013-02-27 02:42:00,
2013-02-26 21:52:00,37.0,33.0,30.20,ENE,64,0.0,3.0,84,0.00,,,0.00,,2013-02-27 02:52:00,
2013-02-26 22:02:00,37.0,33.0,30.19,East,89,0.0,6.0,85,0.00,,,0.00,,2013-02-27 03:02:00,
2013-02-26 22:11:00,37.0,33.0,30.19,East,89,0.0,6.0,85,0.00,,,0.00,,2013-02-27 03:11:00,
2013-02-26 22:22:00,38.0,34.0,30.18,ESE,122,2.0,9.0,87,0.00,,,0.00,,2013-02-27 03:22:00,
2013-02-26 22:32:00,39.0,35.0,30.18,SE,128,3.0,10.0,87,0.00,,,0.00,,2013-02-27 03:32:00,
2013-02-26 22:42:00,39.0,35.0,30.18,SE,128,3.0,10.0,87,0.00,,,0.00,,2013-02-27 03:42:00,
2013-02-26 22:52:00,39.0,35.0,30.17,SE,125,4.0,14.0,87,0.00,,,0.00,,2013-02-27 03:52:00,
2013-02-26 23:01:00,39.0,35.0,30.16,ESE,123,4.0,12.0,87,0.00,,,0.00,,2013-02-27 04:01:00,
2013-02-26 23:12:00,39.0,35.0,30.16,ESE,123,4.0,12.0,87,0.00,,,0.00,,2013-02-27 04:12:00,
2013-02-26 23:22:00,39.0,35.0,30.15,SE,127,5.0,14.0,87,0.00,,,0.00,,2013-02-27 04:22:00,
2013-02-26 23:32:00,40.0,36.0,30.14,East,100,3.0,11.0,86,0.00,,,0.00,,2013-02-27 04:32:00,
2013-02-26 23:42:00,40.0,36.0,30.14,East,100,3.0,11.0,86,0.00,,,0.00,,2013-02-27 04:42:00,
2013-02-26 23:52:00,40.0,36.0,30.13,ESE,112,4.0,13.0,85,0.00,,,0.00,,2013-02-27 04:52:00,